#timestamp,LO_Frequency,Hit 
1502812815.8,286046998.2,N
1502812835.7,286046998.6,N
1502812855.5,286046999.0,N
1502812875.3,286047000.7,N
1502812895.2,286046998.9,N
1502812915.9,286046998.4,N
1502812935.7,286046998.7,N
1502812955.6,286047000.7,N
1502812975.4,286046998.3,N
1502812995.2,286046999.3,N
1502813015.0,286046999.3,N
1502813015.9,286046999.3,N
1502813035.8,286047000.7,N
1502813055.6,286046998.2,N
1502813075.4,286046999.5,N
1502813095.3,286046998.9,N
1502813115.1,286046997.0,N
1502813116.0,286046997.0,N
1502813135.8,286046997.2,N
1502813155.7,286046999.4,N
1502813175.5,286046996.9,N
1502813195.3,286046997.4,N
1502813215.2,286046996.8,N
1502813235.9,286046995.4,Y
1502813255.7,286046995.3,Y
1502813275.6,286046996.7,N
1502813295.4,286046997.9,N
1502813315.2,286046997.8,N
1502813335.1,286046996.8,N
1502813336.0,286046996.8,N
1502813355.8,286046996.9,N
1502813375.6,286046997.3,N
1502813395.5,286046998.4,N
1502813415.3,286046999.6,N
1502813435.1,286046997.7,N
1502813455.8,286046999.1,N
1502813475.7,286046997.4,N
1502813495.5,286046998.1,N
1502813515.3,286046998.7,N
1502813535.2,286046999.0,N
1502813555.9,286046998.8,N
1502813575.7,286046999.0,N
1502813595.6,286047000.7,N
1502813615.4,286047000.0,N
1502813635.2,286046998.6,N
1502813655.0,286046998.2,N
1502813656.0,286046998.2,N
1502813675.8,286047000.9,N
1502813695.6,286046999.7,N
1502813715.4,286046998.7,N
1502813735.3,286047001.1,N
1502813755.1,286046998.7,N
1502813775.8,286046999.0,N
1502813795.7,286046996.9,N
1502813815.5,286046997.8,N
1502813835.3,286046994.9,Y
1502813855.2,286046999.3,N
1502813875.9,286046999.3,N
1502813895.7,286046999.5,N
1502813915.6,286046996.7,N
1502813935.4,286046997.4,N
1502813955.2,286046998.7,N
1502813975.0,286046996.7,N
1502813976.0,286046996.7,N
1502813995.8,286046997.0,N
1502814015.6,286046998.8,N
1502814035.4,286046999.3,N
1502814055.3,286046998.9,N
1502814075.1,286046999.1,N
1502814095.8,286046997.1,N
1502814115.7,286046996.7,N
1502814135.5,286046996.6,N
1502814155.3,286046998.0,N
1502814175.2,286046997.6,N
1502814195.9,286046995.6,Y
1502814215.7,286046996.6,N
1502814235.6,286046999.2,N
1502814255.4,286046997.4,N
1502814275.2,286046997.7,N
1502814295.1,286046995.4,Y
1502814296.0,286046995.4,Y
1502814315.8,286047000.2,N
1502814335.6,286047001.2,N
1502814355.5,286046999.5,N
1502814375.3,286046999.1,N
1502814395.1,286046998.3,N
1502814415.9,286046998.5,N
1502814435.7,286046999.6,N
1502814455.5,286047000.8,N
1502814475.3,286047000.1,N
1502814495.2,286047001.8,N
1502814515.9,286047001.5,N
1502814535.7,286047003.9,N
1502814555.6,286047004.0,N
1502814575.4,286047004.2,N
1502814595.2,286047005.6,N
1502814615.1,286047003.7,N
1502814616.0,286047003.7,N
1502814635.8,286047004.0,N
1502814655.6,286047002.9,N
1502814675.5,286047004.2,N
1502814695.3,286047005.6,N
1502814715.1,286047005.9,N
1502814735.8,286047003.4,N
1502814755.7,286047005.5,N
1502814775.5,286047003.4,N
1502814795.3,286047002.9,N
1502814815.2,286047003.4,N
1502814835.9,286047003.3,N
1502814855.7,286047004.4,N
1502814875.6,286047004.0,N
1502814895.4,286047004.4,N
1502814915.2,286047001.8,N
1502814935.1,286047003.6,N
1502814936.0,286047003.6,N
1502814955.8,286047001.3,N
1502814975.6,286047002.1,N
1502814995.4,286047004.0,N
1502815015.3,286047004.0,N
1502815035.1,286047004.2,N
1502815055.8,286047001.8,N
1502815075.7,286047002.1,N
1502815095.5,286047004.3,N
1502815115.3,286047003.8,N
1502815135.2,286047001.6,N
1502815155.9,286047003.8,N
1502815175.7,286047004.0,N
1502815195.6,286047003.2,N
1502815215.4,286047004.1,N
1502815235.2,286047003.9,N
1502815255.0,286047003.8,N
1502815255.9,286047003.8,N
1502815275.8,286047003.0,N
1502815295.6,286047003.8,N
1502815315.4,286047004.2,N
1502815335.3,286047002.9,N
1502815355.1,286047003.5,N
1502815356.0,286047003.5,N
1502815375.8,286047003.9,Y
1502815395.7,286047000.0,N
1502815415.5,286047000.4,N
1502815435.3,286047000.3,N
1502815455.2,286047001.1,N
1502815475.9,286046998.5,N
1502815495.7,286047000.9,N
1502815515.6,286046998.2,N
1502815535.4,286047000.5,N
1502815555.2,286046998.3,N
1502815575.0,286046998.7,N
1502815576.0,286046998.7,N
1502815595.8,286046999.1,N
1502815615.6,286046999.6,N
1502815635.4,286046999.0,N
1502815655.3,286046999.4,N
1502815675.1,286046996.5,N
1502815695.8,286046999.1,N
1502815715.7,286046998.2,N
1502815735.5,286046999.6,N
1502815755.3,286046999.4,N
1502815775.2,286046998.4,N
1502815795.9,286046999.0,N
1502815815.7,286046999.6,N
1502815835.6,286047000.7,N
1502815855.4,286047001.0,N
1502815875.2,286046999.3,N
1502815895.0,286046999.0,N
1502815895.9,286046999.0,N
1502815915.8,286046998.9,N
1502815935.6,286046996.8,N
1502815955.4,286046996.6,N
1502815975.3,286046997.8,N
1502815995.1,286046997.2,N
1502815996.0,286046997.2,N
1502816015.8,286046997.2,N
1502816035.7,286046995.6,N
1502816055.5,286046995.4,N
1502816075.3,286046997.5,N
1502816095.2,286046995.0,N
1502816115.9,286046995.0,N
1502816135.7,286046995.2,N
1502816155.5,286046995.4,N
1502816175.4,286046995.1,N
1502816195.2,286046995.7,N
1502816215.0,286046997.8,N
1502816215.9,286046997.8,N
1502816235.8,286046995.3,N
1502816255.6,286046996.2,N
1502816275.4,286046997.4,N
1502816295.3,286046995.2,N
1502816315.1,286046995.1,N
1502816316.0,286046995.1,N
1502816335.8,286046997.7,N
1502816355.7,286046997.3,N
1502816375.5,286046995.0,N
1502816395.3,286046995.1,N
